Home > Weather > Odesa > Past weeks

Flag for Ukraine Weather for the Past 2 Weeks in Odesa, Ukraine

Now
41 °F

Low clouds.


Feels Like: 35 °F
Forecast: 41 / 49 °F
Wind: 10 mph from Southeast

Location: Odesa Airport

Current Time: Feb 13, 2016 at 7:45:09 AM

Latest Report: Feb 13, 2016 at 7:00 AM


Visibility: N/A

Pressure: 29.86 "Hg

Humidity: 93%

Dew point: 39 °F

Location of OdesaLocation

Historic Weather in Odesa — Graph

°F

Odesa Temperature Yesterday

Maximum temperature yesterday: 46 °F (at 3:30 PM)
Minimum temperature yesterday: 30 °F (at 7:00 AM)
Average temperature yesterday: 38 °F

High & Low Weather Summary for the Past Weeks

 TemperatureHumidityPressure
High50 °F (Feb 3, 1:30 PM)100% (Jan 30, 1:00 AM)30.42 "Hg (Jan 30, 1:00 AM)
Low23 °F (Jan 30, 6:00 AM)52% (Feb 7, 10:00 AM)29.50 "Hg (Feb 11, 6:30 AM)
Average38 °F87%30.06 "Hg
* Reported Jan 29 6:00 AM — Feb 13 6:30 AM, Odesa, Weather by CustomWeather, © 2016

Note: Actual official high and low records may vary slightly from our data, if they occured in-between our weather recording intervals... More about our weather records

Advertising

Odesa Weather History for the Previous 24 Hours

 ConditionsComfort  
Time TempWeatherWind HumidityBarometerVisibility
6:30 AM
Sat, Feb 13
41 °FMostly cloudy.15 mph100%29.86 "HgN/A
6:00 AM41 °FMostly cloudy.13 mph100%29.86 "HgN/A
5:30 AM43 °FMostly cloudy.10 mph100%29.86 "HgN/A
5:00 AM41 °FMostly cloudy.8 mph100%29.89 "HgN/A
4:30 AM41 °FPassing clouds.8 mph93%29.89 "HgN/A
4:00 AM41 °FOvercast.8 mph93%29.89 "HgN/A
3:30 AM41 °FMostly cloudy.10 mph87%29.92 "HgN/A
3:00 AM41 °FMostly cloudy.8 mph87%29.92 "HgN/A
2:30 AM41 °FOvercast.8 mph87%29.92 "HgN/A
2:00 AM39 °FOvercast.6 mph87%29.95 "HgN/A
1:00 AM39 °FMostly cloudy.3 mph87%29.95 "HgN/A
12:30 AM39 °FMostly cloudy.3 mph87%29.95 "HgN/A
12:00 AM41 °FOvercast.8 mph87%29.95 "HgN/A
11:30 PM
Fri, Feb 12
41 °FMostly cloudy.6 mph87%29.98 "HgN/A
11:00 PM41 °FPassing clouds.6 mph81%29.98 "HgN/A
10:30 PM39 °FPassing clouds.6 mph87%29.98 "HgN/A
10:00 PM39 °FPartly cloudy.6 mph87%29.98 "HgN/A
9:30 PM37 °FClear.3 mph93%29.98 "Hg10 mi
9:00 PM36 °FPassing clouds.6 mph93%29.98 "HgN/A
8:30 PM37 °FPassing clouds.6 mph93%29.98 "HgN/A
8:00 PM37 °FFog.8 mph93%29.98 "Hg3 mi
7:30 PM37 °FClear.8 mph93%29.98 "Hg4 mi
7:00 PM39 °FClear.3 mph87%29.98 "Hg10 mi
6:30 PM41 °FClear.3 mph81%29.98 "Hg10 mi
6:00 PM41 °FClear.3 mph81%29.98 "Hg10 mi
5:30 PM41 °FClear.1 mph81%29.95 "Hg10 mi
5:00 PM43 °FSunny.3 mph76%29.95 "Hg10 mi
4:30 PM45 °FSunny.6 mph76%29.95 "Hg10 mi
4:00 PM46 °FPassing clouds.6 mph71%29.95 "HgN/A
3:30 PM46 °FSunny.8 mph76%29.95 "Hg10 mi
3:00 PM45 °FSunny.8 mph81%29.95 "Hg10 mi
2:30 PM45 °FSunny.8 mph76%29.95 "Hg10 mi
2:00 PM45 °FSunny.8 mph76%29.95 "Hg10 mi
1:30 PM43 °FSunny.8 mph81%29.95 "Hg10 mi
1:00 PM41 °FSunny.10 mph87%29.95 "Hg10 mi
12:30 PM45 °FPassing clouds.6 mph66%29.95 "HgN/A
12:00 PM43 °FSunny.3 mph76%29.95 "Hg10 mi
11:30 AM43 °FSunny.No wind76%29.95 "Hg10 mi
11:00 AM41 °FSunny.No wind76%29.95 "Hg10 mi
10:30 AM41 °FSunny.No wind70%29.95 "Hg10 mi
10:00 AM39 °FSunny.No wind81%29.95 "Hg10 mi
9:30 AM37 °FSunny.3 mph87%29.92 "Hg10 mi
9:00 AM36 °FSunny.1 mph93%29.92 "Hg10 mi
8:30 AM34 °FSunny.No wind87%29.92 "Hg10 mi
8:00 AM34 °FSunny.1 mph87%29.92 "Hg10 mi
7:30 AM32 °FSunny.No wind87%29.92 "Hg10 mi
7:00 AM30 °FClear.No wind93%29.92 "Hg10 mi
Weather by CustomWeather, © 2016

See weather overviewHow to use our weather pages